Regional Weather Roundup
Issued by NWS

Home | Current Version | Previous Version | Text Only | Print | Product List | Glossary Off
Versions: 1 2 3 4 5 6 7 8 9 10 11 12 13 14 15 16 17 18 19 20 21 22 23 24 25 26 27 28 29 30 31 32 33 34 35 36 37 38 39 40 41 42 43 44 45 46 47 48 49 50

000
ASUS45 KSLC 241110
RWRUT

UTAH REGIONAL WEATHER ROUNDUP
NATIONAL WEATHER SERVICE SALT LAKE CITY UT
500 AM MDT SUN MAY 24 2015

UTZ001>011-023>025-241200-

NORTHERN UTAH

CITY           SKY/WX    TMP DP  RH WIND       PRES   REMARKS
BRIGHAM CITY   CLOUDY    50  46  87 CALM      29.96F
HILL AFB       CLEAR     45  42  90 E10       29.96S
LOGAN          CLOUDY    46  44  93 CALM      29.97S
OGDEN          CLEAR     46  42  86 S7        29.95S
PROVO AIRPORT  MOCLDY    46  39  76 E5        29.97S
SALT LAKE CITY PTCLDY    48  42  80 S6        29.95S
VERNAL         CLOUDY    45  38  76 CALM      29.94F
WENDOVER       CLOUDY    52  48  87 CALM      29.96S
HEBER CITY     CLEAR     37  36  93 CALM      29.99S
WEST JORDAN    PTCLDY    45  41  87 CALM      29.97S

$$

UTZ012>022-026-027-241200-

SOUTHERN/CENTRAL UTAH

CITY           SKY/WX    TMP DP  RH WIND       PRES   REMARKS
BLANDING       CLOUDY    43  42  95 CALM      30.07S
BRYCE CANYON   LGT RAIN  40  38  93 CALM      30.03S FOG
CEDAR CITY     CLOUDY    45  43  93 NE3       29.96F
DELTA          CLEAR     42  40  93 CALM      29.97F
HANKSVILLE     CLEAR     43  43 100 CALM      29.97F
MILFORD        CLOUDY    48  45  89 CALM      29.97S
MOAB/CYNLANDS  CLOUDY    47  43  86 NE3       29.94F
PRICE          MOCLDY    41  35  79 NE7       29.97F
ST GEORGE      CLOUDY    55  52  88 CALM      29.93F
KANAB          CLOUDY   N/A N/A N/A SE3       30.00F

$$

REGIONAL REPORTS     COLORADO/ARIZONA

CITY           SKY/WX    TMP DP  RH WIND       PRES   REMARKS
CRAIG, CO      CLOUDY    40  38  93 CALM      29.96F
GRAND JUNCTION CLOUDY    46  42  86 SE6       29.96S
RIFLE          CLOUDY    44  39  82 CALM      29.97S
MONTROSE       CLOUDY    40  40 100 S5        30.01F
CORTEZ         LGT RAIN  43  41  93 E3        30.00S FOG
PAGE, AZ       LGT RAIN  51  49  92 S7        29.95F
GRAND CANYON   CLOUDY    44  37  76 SW5       30.03F
KINGMAN        PTCLDY    51  38  60 S10       29.93F
FLAGSTAFF      PTCLDY    32  30  92 W5        30.05F WCI  27

$$

REGIONAL REPORTS    NEVADA/IDAHO/WYOMING

CITY           SKY/WX    TMP DP  RH WIND       PRES   REMARKS
LAS VEGAS, NV  MOCLDY    69  43  38 S8        29.82S
ELY            CLOUDY    44  42  93 MISG      30.01F
ELKO           CLOUDY    48  46  93 CALM      30.00F
POCATELLO, ID  PTCLDY    43  43 100 CALM      29.98F
BURLEY         CLOUDY    47  46  97 N3        29.97S
EVANSTON, WY   CLOUDY    38  36  92 SW6       30.00F WCI  33
ROCK SPRINGS   RAIN      41  39  93 NW6       29.97F FOG
KEMMERER       PTCLDY    34  34 100 NW9       29.99F WCI  26

$$



USA.gov is the U.S. government's official web portal to all federal, state and local government web resources and services.